GW2321 Weather Reports


Display with metric or nautical units.
time (UTC)temp
F
wind
direction
speed
MPH
gust
MPH
rain 1hr
in
rain 24hr
in
rain mn
in
humidity
%
barometer
mb
20260504201544 77 351 2.0 12.0 0.00 0.00 0.00 16 1008.5
20260504200050 77 37 5.0 11.0 0.00 0.00 0.00 17 1008.6
20260504194538 77 21 2.0 11.0 0.00 0.00 0.00 20 1008.6
20260504193045 76 16 3.0 10.0 0.00 0.00 0.00 19 1008.8
20260504191552 75 46 5.0 12.0 0.00 0.00 0.00 17 1008.8
20260504190040 75 37 5.0 10.0 0.00 0.00 0.00 16 1008.8
20260504184540 75 44 2.0 11.0 0.00 0.00 0.00 19 1008.9
20260504183038 74 53 3.0 13.0 0.00 0.00 0.00 20 1009.0
20260504181544 74 355 4.0 16.0 0.00 0.00 0.00 20 1009.1
20260504180044 73 14 6.0 13.0 0.00 0.00 0.00 18 1009.0
20260504174539 73 13 4.0 12.0 0.00 0.00 0.00 22 1008.8
20260504173039 72 15 7.0 15.0 0.00 0.00 0.00 21 1008.7
20260504171538 71 25 4.0 14.0 0.00 0.00 0.00 24 1008.6
20260504081544 49 0 0.0 0.0 0.00 0.00 0.00 63 1008.1
20260504044540 58 0 0.0 0.0 0.00 0.00 0.00 48 1008.2
20260504043049 59 0 0.0 2.0 0.00 0.00 0.00 45 1008.1
20260504041540 61 44 1.0 3.0 0.00 0.00 0.00 43 1008.1
20260504040042 61 0 0.0 3.0 0.00 0.00 0.00 43 1008.2
20260504034546 63 45 2.0 4.0 0.00 0.00 0.00 42 1007.9
20260504033037 64 46 1.0 3.0 0.00 0.00 0.00 41 1008.0
20260504031547 66 44 2.0 4.0 0.00 0.00 0.00 37 1007.7
20260504030101 68 98 1.0 3.0 0.00 0.00 0.00 36 1007.7
20260504024540 72 0 0.0 1.0 0.00 0.00 0.00 29 1007.8
20260504023038 75 0 0.0 0.0 0.00 0.00 0.00 20 1007.9
20260504021544 76 0 0.0 0.0 0.00 0.00 0.00 19 1008.1
20260504020038 77 0 0.0 3.0 0.00 0.00 0.00 18 1008.5
20260504014537 77 0 0.0 0.0 0.00 0.00 0.00 17 1008.3
20260504013047 79 0 0.0 3.0 0.00 0.00 0.00 18 1008.5
20260504011541 80 0 1.0 4.0 0.00 0.00 0.00 12 1008.8
20260504010045 81 0 0.0 6.0 0.00 0.00 0.00 17 1008.9
20260504004543 82 200 0.0 3.0 0.00 0.00 0.00 13 1009.1
20260504003037 82 0 0.0 3.0 0.00 0.00 0.00 9 1009.1
20260504001545 82 217 1.0 9.0 0.00 0.00 0.00 16 1009.2
20260504000051 82 256 1.0 7.0 0.00 0.00 0.00 12 1009.3
20260503234542 82 0 0.0 6.0 0.00 0.00 0.00 10 1009.5
20260503233038 83 0 2.0 12.0 0.00 0.00 0.00 10 1009.7
20260503231538 82 184 0.0 3.0 0.00 0.00 0.00 11 1009.9
20260503230104 83 0 0.0 3.0 0.00 0.00 0.00 11 1010.1
20260503224544 84 217 1.0 5.0 0.00 0.00 0.00 11 1010.4
20260503223059 83 155 1.0 5.0 0.00 0.00 0.00 9 1010.5
20260503221547 83 234 1.0 7.0 0.00 0.00 0.00 12 1010.5
20260503220042 81 0 1.0 7.0 0.00 0.00 0.00 9 1010.7
20260503214551 83 202 1.0 4.0 0.00 0.00 0.00 9 1011.0
20260503213046 84 280 1.0 6.0 0.00 0.00 0.00 11 1011.3
20260503211544 81 0 0.0 4.0 0.00 0.00 0.00 12 1011.6
20260503210041 79 55 0.0 3.0 0.00 0.00 0.00 12 1011.6
20260503204544 78 0 0.0 4.0 0.00 0.00 0.00 17 1011.9
20260503203039 78 18 0.0 7.0 0.00 0.00 0.00 15 1011.9